Ломбовож

Россия / Ханты-Мансийский автономный округ - Югра     63°48′38″N   61°28′30″E
темп.,
°C
ветер,
м/с
пор.,
м/с
влажн.,
%
обл.,
%
осадки,
мм/ч
давл.,
гПа
погр.,
м
2 декабря, чт
чт223:00−15ссв3696100 0.5 1002291
02:00−16с4896100 0.3 999309
05:00−16с51195100 1.0 995359
08:00−16с51096100 1.6 993414
11:00−17с41096100 4.2 992369
14:00−16ссз369695 0.9 992300
17:00−21з2110083 0.9 99212
20:00−16з1197100 0.3 99182
3 декабря, пт
пт323:00−16ю1296100 0.7 99176
02:00−17ююв129885 0.0 99042
05:00−23ююз11100100 0.0 9909
08:00−20ююв0099100 0.0 99018
11:00−17ссв0096100 0.0 99133
14:00−16с1196100 0.0 99249
17:00−16ссз1298100 0.1 99558
20:00−17ссз239984 0.1 99856
4 декабря, сб
сб423:00−16ссз249899 0.3 100294
02:00−18сз1199100 0.2 100611
05:00−21зсз1110091 0.3 100911
08:00−28сз1110099 0.0 101311
11:00−28ссз2210099 0.1 101745
14:00−27ссз22100100 0.1 101956
17:00−29с2499100 0.1 102068
20:00−24с2594100 0.0 1020112
5 декабря, вс
вс523:00−21ссв3793100 0.0 1019289
02:00−20св41093100 0.2 1019499
05:00−22ссв4998100 1.1 1019428
08:00−23ссв4998100 0.9 1019388
11:00−23ссв4897100 1.3 1020346
14:00−23ссв4897100 0.4 1021313
17:00−23с3797100 0.7 1021284
20:00−23с3696100 0.1 1021232
6 декабря, пн
пн623:00−24ссз249565 0.1 1021134
02:00−32сз111005 0.0 10219
05:00−35ююз111007 0.0 10209
08:00−33ююз2210042 0.0 101932
11:00−28ююз25965 0.0 101966
14:00−24ююз23965 0.0 101843
17:00−22юз22975 0.0 101928
20:00−12зюз310839 0.0 1018210